Home   Weather   Dharmapuri   Past weeks

Flag for India Past Weather in Dharmapuri, Tamil Nadu, India — Yesterday and Last 2 Weeks

Now
66 °F

Drizzle. Broken clouds.


Feels Like: 66 °F
Forecast: 69 / 83 °F
Wind: 7 mph from East

Location: Bangalore / Hindustan

Current Time: Dec 3, 2016 at 7:57:49 am

Latest Report: Dec 3, 2016 at 7:00 am


Visibility: 1 mi

Pressure: 30.04 "Hg

Humidity: 100%

Dew Point: 66 °F

Location of DharmapuriLocation

Past Weather in Dharmapuri — Graph

°F

Dharmapuri Temperature Yesterday

Maximum temperature yesterday: 79 °F (at 2:00 pm)
Minimum temperature yesterday: 48 °F (at 5:30 am)
Average temperature yesterday: 69 °F

High & Low Weather Summary for the Past Weeks

 TemperatureHumidityPressure
High88 °F (Nov 22, 3:00 pm)100% (Dec 2, 5:30 am)30.12 "Hg (Dec 2, 5:30 am)
Low48 °F (Dec 2, 5:30 am)15% (Nov 22, 4:00 pm)29.89 "Hg (Nov 19, 2:30 pm)
Average75 °F50%29.99 "Hg
* Reported Nov 18 6:30 am — Dec 3 6:30 am, Dharmapuri, Weather by CustomWeather, © 2016

Note: Actual official high and low records may vary slightly from our data, if they occured in-between our weather recording intervals... More about our weather records

Advertising

Dharmapuri Weather History for the Previous 24 Hours

Scroll right to see more
 ConditionsComfort  
Time TempWeatherWind HumidityBarometerVisibility
6:30 am
Sat, Dec 3
66 °FPartly cloudy.7 mph100%30.01 "Hg1 mi
6:00 am66 °FPartly cloudy.7 mph100%30.01 "Hg2 mi
5:30 am66 °FFog.9 mph88%29.98 "Hg2 mi
11:30 pm
Fri, Dec 2
66 °FPartly cloudy.12 mph88%30.01 "Hg2 mi
10:30 pm66 °FPartly cloudy.8 mph100%30.04 "Hg2 mi
9:30 pm68 °FPartly cloudy.12 mph94%30.01 "Hg2 mi
8:30 pm68 °FLight rain. Partly cloudy.6 mph100%30.01 "Hg2 mi
7:30 pm68 °FLight rain. Partly cloudy.6 mph94%29.98 "Hg2 mi
6:30 pm70 °FPartly cloudy.6 mph88%29.98 "Hg2 mi
5:30 pm70 °FDrizzle. Broken clouds.7 mph88%29.95 "Hg2 mi
5:00 pm70 °FBroken clouds.7 mph88%29.95 "Hg4 mi
4:30 pm70 °FDrizzle. Broken clouds.12 mph94%29.92 "Hg1 mi
4:00 pm73 °FBroken clouds.12 mph78%29.92 "HgN/A
3:30 pm75 °FBroken clouds.12 mph69%29.92 "HgN/A
3:00 pm77 °FScattered clouds.9 mph65%29.92 "HgN/A
2:30 pm77 °FScattered clouds.9 mph65%29.92 "HgN/A
2:00 pm79 °FScattered clouds.12 mph61%29.92 "HgN/A
1:30 pm77 °FScattered clouds.12 mph65%29.95 "HgN/A
1:00 pm77 °FBroken clouds.12 mph65%29.95 "HgN/A
12:30 pm75 °FBroken clouds.12 mph69%29.98 "HgN/A
12:00 pm75 °FBroken clouds.9 mph74%30.01 "HgN/A
11:30 am73 °FBroken clouds.9 mph78%30.01 "HgN/A
11:00 am73 °FBroken clouds.12 mph78%30.04 "Hg4 mi
10:30 am70 °FBroken clouds.7 mph88%30.04 "Hg3 mi
10:00 am68 °FMore clouds than sun.7 mph94%30.04 "Hg2 mi
9:30 am68 °FDrizzle. More clouds than sun.6 mph94%30.04 "Hg1 mi
9:00 am68 °FFog.6 mph94%30.04 "Hg2 mi
8:30 am68 °FFog.6 mph94%30.04 "Hg1 mi
8:00 am66 °FLight rain. Cloudy.6 mph94%30.01 "Hg1 mi
7:30 am66 °FDrizzle. Cloudy.3 mph94%30.01 "Hg1 mi
7:00 am66 °FDrizzle. Broken clouds.6 mph94%30.01 "Hg1 mi
Weather by CustomWeather, © 2016

See weather overviewHow to use our weather pages